Terug naar catalogus

STARLINK-1171

ActiefCommunicatieVLEO
NORAD 45062·PAYLOAD·🇺🇸 United States

Gelanceerd Jan 29, 2020 vanaf Cape Canaveral Space Force Station

Loading…

Volgende Passages (komende 24 uur)

TLE

VersSource: CelesTrak SupGP

Epoch: Sep 14, 2026, 20:40 UTC

1 45062C 20006U   26257.86159722  .00256380  00000+0  58502-3 0  2570
2 45062  53.0299  24.9162 0005197 318.3423 258.3665 15.96540638    10

Volg STARLINK-1171 in realtime met AllMySat

Download on the App Store